Location: Rumah Long Bangan
(2.8362°N, 113.7519°E)
Time: 04:47:55
(UTC+00:00)

ARIANE 5 R/B - Pass Details

Date: 24 October 2021
Orbit: 277 x 34036 km, 2.4° (Epoch: 28 November)

Event Time Altitude Azimuth Distance (km) Brightness Sun altitude
Rises 12:23:05 0° 257° (WSW) 2,514 6.3 -33.3°
Reaches altitude 10° 12:24:20 10° 252° (WSW) 1,955 5.4 -33.6°
Enters shadow 12:27:24 54° 203° (SSW) 1,254 3.6 -34.4°
Exits shadow 13:07:27 - 93° (E) 15,207 8.6 -44.1°
Sets 21:34:14 0° 89° (E) 14,503 10.9 -9.1°
